Date String (YYYY-MM-DD hh:mm:ss) UTC,Instrument flags,absolute air pressure of the measurement (hPa),sample flow rate (lpm),inlet stack bypass flow (lpm),air temperature of the measurement (°C),ambient temperature measured by the external sensor (°C),aerosol sample conditioner tube jacket temperature (°C),OPC LED temperature (°C),internal box temperature (°C),relative humidity of the measurement (%),span deviation,mass concentration of particles derived from Lorenz-Mie calculation of OPC scattering (μg/m³),mass concentration of particles derived from Lorenz-Mie calculation of OPC scattering (μg/m³),mass concentration of particles derived from Lorenz-Mie calculation of OPC scattering (μg/m³)
DateTimeUTC,F1_M11,P_M11,Q1_M11,Q2_M11,T1_M11,T2_M11,T3_M11,T4_M11,T5_M11,U1_M11,ZSPAN_M11,X2_M11,X0_M11,X1_M11
2024-06-02 02:00:00,SystemResetWarning,0825.9,5.01,000.00,029.2,025.1,000.0,038.0,029.6,018.4,0000.0,0003.71,0011.45,0002.71
2024-06-02 02:01:00,SystemResetWarning,0825.9,5.02,000.00,028.9,025.2,000.0,038.0,029.5,018.8,0000.0,0003.71,0011.16,0002.73
2024-06-02 02:02:00,SystemResetWarning,0826.0,5.00,000.00,028.8,025.8,000.0,037.8,029.8,018.5,0000.0,0003.73,0011.97,0002.75
2024-06-02 02:03:00,SystemResetWarning,0826.0,4.99,000.00,028.8,026.3,000.0,037.7,030.1,018.4,0000.0,0003.74,0012.42,0002.76
2024-06-02 02:04:00,SystemResetWarning,0826.1,5.00,000.00,028.9,026.8,000.0,037.6,030.3,018.5,0000.0,0003.75,0012.40,0002.76
2024-06-02 02:05:00,SystemResetWarning,0826.2,5.00,000.00,028.9,027.3,000.0,037.6,030.5,018.4,0000.0,0003.74,0012.72,0002.75
2024-06-02 02:06:00,SystemResetWarning,0826.2,5.01,000.00,029.0,027.6,000.0,037.5,030.7,018.5,0000.0,0003.74,0013.89,0002.74
2024-06-02 02:07:00,SystemResetWarning,0826.2,5.00,000.00,029.1,027.9,000.0,037.5,030.8,019.0,0000.0,0003.76,0014.04,0002.74
2024-06-02 02:08:00,SystemResetWarning,0826.2,5.00,000.00,029.2,028.2,000.0,037.5,030.9,019.3,0000.0,0003.76,0014.30,0002.74
2024-06-02 02:09:00,SystemResetWarning,0826.2,5.00,000.00,029.2,028.4,000.0,037.5,031.1,019.0,0000.0,0003.83,0015.31,0002.76
2024-06-02 02:10:00,SystemResetWarning,0826.2,5.00,000.00,029.3,028.6,000.0,037.5,031.2,018.4,0000.0,0003.82,0015.24,0002.77
2024-06-02 02:11:00,SystemResetWarning,0826.2,5.01,000.00,029.4,028.8,000.0,037.6,031.2,018.2,0000.0,0003.85,0015.12,0002.77
2024-06-02 02:12:00,SystemResetWarning,0826.2,5.00,000.00,029.5,028.9,000.0,037.6,031.3,017.9,0000.0,0003.83,0015.47,0002.75
2024-06-02 02:13:00,SystemResetWarning,0826.2,4.99,000.00,029.5,029.1,000.0,037.6,031.4,017.8,0000.0,0003.81,0014.24,0002.73
2024-06-02 02:14:00,SystemResetWarning,0826.2,5.00,000.00,029.6,029.2,000.0,037.7,031.5,017.7,0000.0,0003.80,0014.24,0002.72
2024-06-02 02:15:00,SystemResetWarning,0826.2,4.99,000.00,029.7,029.3,000.0,037.7,031.6,017.6,0000.0,0003.82,0015.27,0002.70
2024-06-02 02:16:00,SystemResetWarning,0826.2,5.00,000.00,029.8,029.4,000.0,037.7,031.6,017.4,0000.0,0003.77,0014.94,0002.69
2024-06-02 02:17:00,SystemResetWarning,0826.2,5.01,000.00,029.8,029.4,000.0,037.8,031.7,017.6,0000.0,0003.76,0014.58,0002.67
2024-06-02 02:18:00,SystemResetWarning,0826.2,5.00,000.00,029.9,029.5,000.0,037.8,031.8,017.4,0000.0,0003.74,0015.49,0002.66
2024-06-02 02:19:00,SystemResetWarning,0826.2,5.00,000.00,030.0,029.6,000.0,037.9,031.8,017.0,0000.0,0003.72,0015.26,0002.66
2024-06-02 02:20:00,SystemResetWarning,0826.2,5.00,000.00,030.0,029.7,000.0,037.9,031.9,016.8,0000.0,0003.64,0014.08,0002.64
2024-06-02 02:21:00,SystemResetWarning,0826.2,5.01,000.00,030.1,029.7,000.0,038.0,031.9,016.7,0000.0,0003.61,0013.50,0002.62
2024-06-02 02:22:00,SystemResetWarning,0826.2,5.00,000.00,030.2,029.8,000.0,038.0,032.0,016.8,0000.0,0003.60,0013.43,0002.61
2024-06-02 02:23:00,SystemResetWarning,0826.2,4.98,000.00,030.1,029.0,000.0,038.1,031.5,016.5,0000.0,0003.57,0013.09,0002.61
2024-06-02 02:24:00,SystemResetWarning,0826.0,5.01,000.00,029.7,026.6,000.0,038.2,030.4,016.8,0000.0,0003.64,0014.17,0002.61
2024-06-02 02:25:00,SystemResetWarning,0826.0,5.01,000.00,029.4,026.4,000.0,038.2,030.2,017.3,0000.0,0003.65,0014.84,0002.63
2024-06-02 02:26:00,SystemResetWarning,0826.1,4.99,000.00,029.3,026.8,000.0,038.1,030.4,017.5,0000.0,0003.64,0013.59,0002.63
2024-06-02 02:27:00,SystemResetWarning,0826.0,4.99,000.00,029.3,027.2,000.0,038.0,030.6,017.5,0000.0,0003.66,0014.02,0002.64
2024-06-02 02:28:00,SystemResetWarning,0826.1,5.00,000.00,029.4,027.6,000.0,037.9,030.8,017.5,0000.0,0003.69,0013.78,0002.67
2024-06-02 02:29:00,SystemResetWarning,0826.1,5.01,000.00,029.4,028.0,000.0,037.9,031.0,017.2,0000.0,0003.69,0012.93,0002.69
2024-06-02 02:30:00,SystemResetWarning,0826.0,5.01,000.00,029.5,028.3,000.0,037.9,031.1,016.8,0000.0,0003.74,0013.35,0002.70
2024-06-02 02:31:00,SystemResetWarning,0826.0,5.00,000.00,029.6,028.5,000.0,037.8,031.3,016.4,0000.0,0003.77,0013.41,0002.71
2024-06-02 02:32:00,SystemResetWarning,0826.1,5.00,000.00,029.6,028.7,000.0,037.9,031.4,016.2,0000.0,0003.76,0013.41,0002.71
2024-06-02 02:33:00,SystemResetWarning,0826.0,5.01,000.00,029.7,028.9,000.0,037.9,031.5,016.2,0000.0,0003.76,0013.71,0002.72
2024-06-02 02:34:00,SystemResetWarning,0826.0,4.99,000.00,029.7,029.0,000.0,037.9,031.5,016.0,0000.0,0003.79,0014.42,0002.72
2024-06-02 02:35:00,SystemResetWarning,0826.0,5.00,000.00,029.8,029.2,000.0,037.9,031.6,016.1,0000.0,0003.75,0013.16,0002.71
2024-06-02 02:36:00,SystemResetWarning,0826.0,5.00,000.00,029.9,029.3,000.0,037.9,031.7,016.1,0000.0,0003.74,0011.85,0002.72
2024-06-02 02:37:00,SystemResetWarning,0826.0,5.00,000.00,029.9,029.4,000.0,038.0,031.7,016.2,0000.0,0003.72,0011.88,0002.72
2024-06-02 02:38:00,SystemResetWarning,0825.9,4.99,000.00,030.0,029.5,000.0,038.0,031.8,016.2,0000.0,0003.70,0011.79,0002.70
2024-06-02 02:39:00,SystemResetWarning,0825.9,4.99,000.00,030.0,029.6,000.0,038.1,031.9,016.2,0000.0,0003.67,0011.52,0002.67
2024-06-02 02:40:00,SystemResetWarning,0825.9,4.99,000.00,030.1,029.7,000.0,038.1,031.9,016.1,0000.0,0003.63,0011.06,0002.66
2024-06-02 02:41:00,SystemResetWarning,0825.9,5.00,000.00,030.2,029.7,000.0,038.1,032.0,016.0,0000.0,0003.58,0010.45,0002.65
2024-06-02 02:42:00,SystemResetWarning,0825.9,5.00,000.00,030.2,029.3,000.0,038.2,031.8,016.0,0000.0,0003.58,0010.41,0002.64
2024-06-02 02:43:00,SystemResetWarning,0825.9,5.00,000.00,029.9,026.9,000.0,038.3,030.7,016.2,0000.0,0003.62,0010.46,0002.65
2024-06-02 02:44:00,SystemResetWarning,0825.9,5.02,000.00,029.5,026.3,000.0,038.3,030.3,016.5,0000.0,0003.60,0010.62,0002.64
2024-06-02 02:45:00,SystemResetWarning,0826.0,5.01,000.00,029.4,026.7,000.0,038.2,030.3,016.8,0000.0,0003.61,0010.42,0002.64
2024-06-02 02:46:00,SystemResetWarning,0826.0,5.00,000.00,029.4,027.1,000.0,038.1,030.6,016.8,0000.0,0003.63,0010.19,0002.67
2024-06-02 02:47:00,SystemResetWarning,0826.0,5.00,000.00,029.4,027.5,000.0,038.0,030.8,016.5,0000.0,0003.61,0011.07,0002.69
2024-06-02 02:48:00,SystemResetWarning,0826.0,5.00,000.00,029.5,027.9,000.0,037.9,031.0,016.4,0000.0,0003.60,0011.02,0002.70
2024-06-02 02:49:00,SystemResetWarning,0826.0,5.01,000.00,029.5,028.2,000.0,037.9,031.2,017.3,0000.0,0003.62,0010.78,0002.72
2024-06-02 02:50:00,SystemResetWarning,0826.0,5.00,000.00,029.6,028.4,000.0,037.9,031.3,016.7,0000.0,0003.62,0010.78,0002.76
2024-06-02 02:51:00,SystemResetWarning,0825.9,5.00,000.00,029.6,028.6,000.0,037.9,031.3,016.5,0000.0,0003.65,0011.42,0002.79
2024-06-02 02:52:00,SystemResetWarning,0825.9,5.01,000.00,029.7,028.8,000.0,037.9,031.4,016.9,0000.0,0003.70,0012.09,0002.82
2024-06-02 02:53:00,SystemResetWarning,0825.9,5.00,000.00,029.7,029.0,000.0,037.9,031.5,016.1,0000.0,0003.72,0013.00,0002.85
2024-06-02 02:54:00,SystemResetWarning,0825.9,5.00,000.00,029.8,029.1,000.0,037.9,031.6,016.2,0000.0,0003.72,0013.35,0002.88
2024-06-02 02:55:00,SystemResetWarning,0825.9,4.99,000.00,029.9,029.2,000.0,038.0,031.6,015.9,0000.0,0003.73,0013.14,0002.91
2024-06-02 02:56:00,SystemResetWarning,0825.9,5.01,000.00,029.9,029.3,000.0,038.0,031.7,015.7,0000.0,0003.70,0012.34,0002.93
2024-06-02 02:57:00,SystemResetWarning,0826.0,5.00,000.00,030.0,029.4,000.0,038.0,031.8,015.8,0000.0,0003.69,0012.72,0002.94
2024-06-02 02:58:00,SystemResetWarning,0826.0,5.00,000.00,030.0,029.5,000.0,038.0,031.8,015.9,0000.0,0003.69,0012.42,0002.94
2024-06-02 02:59:00,SystemResetWarning,0826.0,5.00,000.00,030.1,029.6,000.0,038.1,031.9,015.9,0000.0,0003.74,0013.30,0002.93
